[[{"header":{"parameterUnit":"m.s-1","parameterCategory":1,"la1":30.2991,"la2":30.254,"lo1":-89.0895,"lo2":-89.0444,"dy":0.0017,"dx":0.0017,"nx":28,"ny":28,"refTime":"2023-11-03T03:00:00:Z","depth":0,"parameterNumber":2,"parameterNumberName":"U-component_of_WINDS"},"data":[0,0,0,0,0,0,0,0,0,0,0,0,0,0,0,0,0,0,0,0,0,0,0,0,0,0,0,0,0,0,0,0,0,0,0,0,0,0,0,0,0,0,0,0,0,0,0,0,0,0,0,0,0,0,0,0,0,0,-2.6191,-2.6191,0,-2.6182,-2.6182,-2.6182,-2.6083,-2.6081,-2.6078,-2.6076,-2.6071,-2.6073,-2.6075,0,0,0,0,0,0,0,0,0,0,0,0,0,-2.6126,-2.6127,-2.6191,-2.6191,-2.619,-2.6182,-2.6182,-2.6182,-2.6084,-2.6081,-2.6077,-2.6075,-2.607,-2.6072,-2.6075,0,0,0,0,0,0,0,0,0,0,0,0,0,-2.6139,-2.6128,-2.6191,-2.614,-2.6136,-2.6182,-2.6182,-2.6182,-2.6084,-2.608,-2.6077,-2.6073,-2.6069,-2.6072,-2.6075,-2.617,0,0,-2.6085,-2.6087,0,0,0,0,0,0,0,0,-2.6139,-2.6142,-2.6148,-2.6144,-2.6139,-2.613,-2.6157,-2.6178,-2.6085,-2.6104,-2.6076,-2.6071,-2.6094,-2.6095,-2.6101,-2.617,-2.617,-2.6086,-2.6088,-2.6089,-2.609,0,0,0,0,0,0,0,-2.6138,-2.6142,-2.6187,-2.6148,-2.6143,-2.6119,-2.6117,-2.616,-2.612,-2.6102,-2.6095,-2.6095,-2.609,-2.6098,-2.61,-2.617,-2.6086,-2.6088,-2.6091,-2.6092,-2.6318,-2.6322,0,0,0,0,0,0,-2.6143,-2.6141,-2.6188,-2.6187,-2.6129,-2.6124,-2.6121,-2.6137,-2.6119,-2.6113,-2.6098,-2.609,-2.6095,-2.6097,-2.61,-2.6212,-2.6089,-2.6092,-2.6094,-2.6314,-2.6319,-2.6324,0,0,0,0,0,0,-2.6142,-2.6148,-2.6188,-2.6162,-2.6165,-2.6129,-2.6147,-2.6138,-2.6146,-2.6116,-2.6109,-2.6114,-2.6092,-2.6095,-2.6154,-2.621,-2.6094,-2.6097,-2.6309,-2.6316,-2.6321,-2.6435,0,0,0,0,0,0,-2.6141,-2.6149,-2.6184,-2.6164,-2.6167,-2.6241,-2.615,-2.6141,-2.6152,-2.6141,-2.6129,-2.6123,-2.6089,-2.6149,-2.6157,-2.6212,-2.6099,-2.6304,-2.6312,-2.6319,-2.6427,-2.6445,-2.646,0,0,0,0,0,-2.6139,-2.6216,-2.6186,-2.6192,-2.621,-2.6245,-2.6247,-2.6205,-2.6156,-2.6192,-2.6173,-2.6123,-2.6202,-2.6156,-2.6164,-2.6221,-2.6301,-2.631,-2.6319,-2.6419,-2.6441,-2.646,0,0,0,0,0,0,-2.6245,-2.6213,-2.6179,-2.6252,-2.6252,-2.6228,-2.6272,-2.623,-2.6244,-2.6234,-2.6183,-2.6181,-2.6248,-2.624,-2.6189,-2.6313,-2.6243,-2.6254,-2.6316,-2.6337,-2.6354,-2.6355,-2.6102,0,0,0,0,0,-2.6277,-2.6306,-2.6277,-2.6345,-2.6346,-2.6309,-2.6323,-2.629,-2.6289,-2.6289,-2.6273,-2.6275,-2.63,-2.6317,-2.6339,-2.6424,-2.6421,-2.6467,-2.6484,-2.6498,-2.6509,-2.6556,-2.6577,-2.6353,-2.6353,-2.6353,0,0,-2.6343,-2.6329,-2.6351,-2.6365,-2.6362,-2.6395,-2.631,-2.6348,-2.6373,-2.6295,-2.6349,-2.6339,-2.6336,-2.641,-2.6441,-2.6405,-2.657,-2.651,-2.6521,-2.6524,-2.6567,-2.6589,-2.6607,-2.636,-2.6359,-2.6358,0,0,-2.6481,-2.6473,-2.6529,-2.6526,-2.6521,-2.6496,-2.651,-2.6492,-2.6482,-2.6536,-2.6478,-2.6507,-2.6551,-2.6552,-2.6559,-2.6698,-2.6654,-2.6706,-2.6795,-2.6841,-2.6859,-2.6874,-2.6926,-2.6945,-2.6717,-2.6717,-2.6717,0,-2.6565,-2.6612,-2.6563,-2.6606,-2.6615,-2.6544,-2.6601,-2.6602,-2.6605,-2.6613,-2.6572,-2.6626,-2.662,-2.6693,-2.6727,-2.6734,-2.675,-2.6709,-2.686,-2.6875,-2.6889,-2.6938,-2.6957,-2.6724,-2.6723,-2.6722,-2.6722,0,-2.6716,-2.6749,-2.6795,-2.6799,-2.6813,-2.6863,-2.6824,-2.6843,-2.681,-2.679,-2.6846,-2.6836,-2.6855,-2.6869,-2.6837,-2.6938,-2.6917,-2.6869,-2.6797,-2.6917,-2.6963,-2.6981,-2.6733,-2.6731,-2.6729,-2.6727,0,0,-2.6922,-2.6898,-2.6916,-2.6918,-2.6907,-2.6932,-2.698,-2.6997,-2.7016,-2.702,-2.706,-2.7099,-2.7054,-2.7062,-2.7029,-2.7069,-2.7183,-2.7017,-2.7016,-2.705,-2.7297,-2.7336,-2.7358,-2.7153,-2.7156,-2.7159,-2.7298,0,-2.7058,-2.7136,-2.7094,-2.7179,-2.7211,-2.7144,-2.7185,-2.7184,-2.7166,-2.7191,-2.7171,-2.7201,-2.7139,-2.7143,-2.718,-2.7162,-2.7233,-2.7151,-2.7192,-2.7194,-2.7197,-2.7381,-2.7421,-2.7554,-2.7316,-2.7319,-2.7321,0,-2.7226,-2.7237,-2.7325,-2.7309,-2.7321,-2.7359,-2.7372,-2.7396,-2.7394,-2.7378,-2.7387,-2.7345,-2.7392,-2.7319,-2.7384,-2.733,-2.7344,-2.7338,-2.7342,-2.7346,-2.7267,-2.7393,-2.7595,-2.7616,-2.7348,-2.7346,-2.7344,0,-2.7371,-2.7408,-2.7465,-2.7468,-2.7451,-2.7479,-2.7473,-2.7467,-2.748,-2.7492,-2.7501,-2.7518,-2.7528,-2.7543,-2.7508,-2.7458,-2.7579,-2.7503,-2.7569,-2.7571,-2.76,-2.7599,-2.7809,-2.7605,-2.7605,-2.7604,-2.7604,0,-2.7528,-2.7586,-2.7531,-2.7567,-2.7629,-2.758,-2.7644,-2.7631,-2.7626,-2.766,-2.7602,-2.7635,-2.7584,-2.7613,-2.7585,-2.7645,-2.7649,-2.7639,-2.7632,-2.7646,-2.7648,-2.7657,-2.7648,-2.7609,-2.7608,-2.7607,-2.7606,0,-2.7702,-2.7667,-2.7726,-2.7704,-2.77,-2.7748,-2.7729,-2.7763,-2.774,-2.7783,-2.7791,-2.7757,-2.7787,-2.7752,-2.778,-2.7762,-2.7843,-2.7821,-2.7844,-2.7839,-2.7908,-2.7904,-2.8134,-2.8163,-2.7937,-2.794,-2.7941,0,-2.7806,-2.7849,-2.7831,-2.7849,-2.7846,-2.7875,-2.7888,-2.7842,-2.7859,-2.7859,-2.7893,-2.7918,-2.7936,-2.7989,-2.7967,-2.7989,-2.7968,-2.8047,-2.7971,-2.7985,-2.7973,-2.7972,-2.7977,-2.8064,-2.8067,-2.8069,-2.807,0,-2.7995,-2.7976,-2.7996,-2.8012,-2.8029,-2.8039,-2.8045,-2.8063,-2.8015,-2.8036,-2.8066,-2.808,-2.8108,-2.8135,-2.8151,-2.8146,-2.8102,-2.8094,-2.8111,-2.8128,-2.8141,-2.8137,-2.789,-2.809,-2.8088,-2.8086,-2.8085,-2.8085,-2.8139,-2.8174,-2.8167,-2.8193,-2.8192,-2.8199,-2.823,-2.8211,-2.8235,-2.8253,-2.8224,-2.8263,-2.826,-2.8276,-2.8276,-2.8307,-2.8273,-2.8297,-2.8304,-2.8311,-2.8323,-2.8134,-2.8309,-2.8308,-2.8308,-2.8307,-2.8307,0,-2.8327,-2.8319,-2.8343,-2.8353,-2.8373,-2.8327,-2.8331,-2.8352,-2.8386,-2.8387,-2.8406,-2.8441,-2.8467,-2.8447,-2.8469,-2.8498,-2.8478,-2.8505,-2.8504,-2.8505,-2.835,-2.8335,-2.8521,-2.8521,-2.8521,-2.8521,-2.8521,-2.8521,-2.8428,-2.8486,-2.8466,-2.8523,-2.8515,-2.8551,-2.8558,-2.8565,-2.8565,-2.8607,-2.8628,-2.8614,-2.8607,-2.8628,-2.8651,-2.8644,-2.8656,-2.8692,-2.8679,-2.8536,-2.8515,-2.8495,-2.848,-2.8694,-2.8694,-2.883,-2.8832,-2.8833]},{"header":{"parameterUnit":"m.s-1","parameterCategory":1,"la1":30.2991,"la2":30.254,"lo1":-89.0895,"lo2":-89.0444,"dy":0.0017,"dx":0.0017,"nx":28,"ny":28,"refTime":"2023-11-03T03:00:00:Z","depth":0,"parameterNumber":3,"parameterNumberName":"V-component_of_WINDS"},"data":[0,0,0,0,0,0,0,0,0,0,0,0,0,0,0,0,0,0,0,0,0,0,0,0,0,0,0,0,0,0,0,0,0,0,0,0,0,0,0,0,0,0,0,0,0,0,0,0,0,0,0,0,0,0,0,0,0,0,-1.4842,-1.4843,0,-1.4942,-1.4944,-1.4945,-1.4966,-1.4965,-1.4964,-1.4964,-1.5067,-1.5071,-1.5074,0,0,0,0,0,0,0,0,0,0,0,0,0,-1.4669,-1.4672,-1.4842,-1.4843,-1.4844,-1.4942,-1.4944,-1.4945,-1.4966,-1.4965,-1.4964,-1.4963,-1.5066,-1.507,-1.5074,0,0,0,0,0,0,0,0,0,0,0,0,0,-1.4754,-1.4673,-1.4842,-1.4867,-1.487,-1.4942,-1.4944,-1.4945,-1.4966,-1.4965,-1.4964,-1.4963,-1.5065,-1.507,-1.5075,-1.5129,0,0,-1.5091,-1.5093,0,0,0,0,0,0,0,0,-1.4749,-1.476,-1.4862,-1.4865,-1.4869,-1.494,-1.4921,-1.5007,-1.4966,-1.493,-1.4964,-1.4962,-1.5026,-1.5034,-1.5056,-1.5134,-1.5139,-1.5091,-1.5094,-1.5097,-1.5098,0,0,0,0,0,0,0,-1.4743,-1.4756,-1.4882,-1.4863,-1.4868,-1.4873,-1.4884,-1.4937,-1.4983,-1.4933,-1.4935,-1.4946,-1.5028,-1.5051,-1.5058,-1.514,-1.5091,-1.5096,-1.5099,-1.5101,-1.527,-1.5271,0,0,0,0,0,0,-1.4733,-1.4751,-1.4879,-1.4885,-1.4805,-1.4877,-1.4889,-1.4919,-1.4982,-1.4991,-1.4947,-1.4947,-1.5042,-1.5052,-1.5062,-1.5132,-1.5097,-1.5101,-1.5104,-1.5268,-1.527,-1.5272,0,0,0,0,0,0,-1.4729,-1.4744,-1.4875,-1.4819,-1.4836,-1.4881,-1.4914,-1.4921,-1.4944,-1.4993,-1.5001,-1.4962,-1.5042,-1.5055,-1.5113,-1.5135,-1.5104,-1.5109,-1.5267,-1.5269,-1.5271,-1.527,0,0,0,0,0,0,-1.4724,-1.4743,-1.4764,-1.4819,-1.4838,-1.4924,-1.4915,-1.4924,-1.4953,-1.4954,-1.5009,-1.5018,-1.5042,-1.5105,-1.5118,-1.5142,-1.5113,-1.5265,-1.5268,-1.527,-1.5268,-1.5272,-1.5275,0,0,0,0,0,-1.4718,-1.4759,-1.4765,-1.478,-1.4866,-1.4925,-1.4936,-1.4963,-1.4955,-1.4977,-1.5008,-1.5016,-1.513,-1.5111,-1.5125,-1.5151,-1.5264,-1.5267,-1.527,-1.5267,-1.5271,-1.5275,0,0,0,0,0,0,-1.4706,-1.4767,-1.4774,-1.4834,-1.4874,-1.4928,-1.4957,-1.4966,-1.501,-1.5009,-1.504,-1.5053,-1.5109,-1.5136,-1.5113,-1.5208,-1.5197,-1.5203,-1.5189,-1.5193,-1.5197,-1.519,-1.5117,0,0,0,0,0,-1.471,-1.4753,-1.4804,-1.4853,-1.4872,-1.4911,-1.4937,-1.4955,-1.4997,-1.5015,-1.505,-1.5092,-1.5137,-1.5166,-1.521,-1.5271,-1.5284,-1.5296,-1.5299,-1.5302,-1.5308,-1.5343,-1.5349,-1.5282,-1.5282,-1.5282,0,0,-1.472,-1.4759,-1.4784,-1.4851,-1.4884,-1.4928,-1.4925,-1.4971,-1.5005,-1.5022,-1.5079,-1.5106,-1.5155,-1.5215,-1.5243,-1.5239,-1.5329,-1.5306,-1.5307,-1.5312,-1.5347,-1.5353,-1.5359,-1.5284,-1.5283,-1.5283,0,0,-1.4761,-1.4794,-1.4839,-1.4872,-1.4921,-1.4947,-1.4957,-1.501,-1.5029,-1.5087,-1.5101,-1.514,-1.5217,-1.5251,-1.5279,-1.5332,-1.5341,-1.5345,-1.5363,-1.5397,-1.5402,-1.5407,-1.5428,-1.5435,-1.535,-1.535,-1.535,0,-1.4768,-1.4834,-1.4861,-1.4907,-1.4937,-1.4953,-1.4999,-1.503,-1.5091,-1.5111,-1.5105,-1.5203,-1.5236,-1.5305,-1.5318,-1.5339,-1.5353,-1.534,-1.5399,-1.5405,-1.541,-1.543,-1.5437,-1.535,-1.535,-1.535,-1.535,0,-1.484,-1.4886,-1.4916,-1.4976,-1.5008,-1.5054,-1.5088,-1.5117,-1.5131,-1.5157,-1.5216,-1.5256,-1.531,-1.5327,-1.5341,-1.5398,-1.5394,-1.5393,-1.5383,-1.5416,-1.5436,-1.5443,-1.5351,-1.5351,-1.5351,-1.535,0,0,-1.4879,-1.4952,-1.4963,-1.499,-1.5045,-1.5082,-1.5128,-1.518,-1.5206,-1.5247,-1.5287,-1.5352,-1.5351,-1.5382,-1.54,-1.543,-1.5471,-1.5425,-1.5427,-1.5434,-1.5538,-1.554,-1.5549,-1.5476,-1.5478,-1.5479,-1.5535,0,-1.4929,-1.5012,-1.5037,-1.5108,-1.5151,-1.5167,-1.5207,-1.5246,-1.5271,-1.5311,-1.5339,-1.5385,-1.538,-1.5399,-1.5428,-1.546,-1.5493,-1.5456,-1.5516,-1.5518,-1.5506,-1.5559,-1.5561,-1.5612,-1.5543,-1.5544,-1.5545,0,-1.4998,-1.5041,-1.5116,-1.5166,-1.5186,-1.5222,-1.5271,-1.5309,-1.5353,-1.537,-1.5404,-1.5419,-1.5468,-1.5453,-1.5522,-1.5496,-1.5522,-1.5541,-1.5543,-1.5552,-1.5535,-1.5571,-1.5629,-1.5638,-1.5557,-1.5556,-1.5555,0,-1.5022,-1.5098,-1.5153,-1.5175,-1.5235,-1.526,-1.5286,-1.5329,-1.5359,-1.5402,-1.5422,-1.547,-1.5497,-1.5534,-1.5561,-1.5547,-1.5629,-1.5615,-1.5645,-1.5644,-1.5664,-1.5663,-1.5729,-1.5676,-1.5676,-1.5675,-1.5675,0,-1.5076,-1.5122,-1.5164,-1.5199,-1.525,-1.5278,-1.5328,-1.5355,-1.5393,-1.5433,-1.5448,-1.5485,-1.5518,-1.556,-1.5581,-1.5636,-1.5648,-1.5663,-1.5669,-1.5663,-1.5662,-1.5683,-1.5681,-1.5678,-1.5677,-1.5677,-1.5676,0,-1.5112,-1.5142,-1.5204,-1.5255,-1.5269,-1.5305,-1.5349,-1.5383,-1.5407,-1.5458,-1.5471,-1.551,-1.556,-1.5591,-1.5654,-1.5668,-1.573,-1.5733,-1.5715,-1.5718,-1.5747,-1.5745,-1.5831,-1.5844,-1.578,-1.578,-1.5781,0,-1.5146,-1.5182,-1.5237,-1.5264,-1.5291,-1.5335,-1.5365,-1.5393,-1.5424,-1.5477,-1.5504,-1.5555,-1.5597,-1.5676,-1.5711,-1.5759,-1.5765,-1.5792,-1.5773,-1.5766,-1.5768,-1.5767,-1.5772,-1.5796,-1.5797,-1.5797,-1.5797,0,-1.5204,-1.5217,-1.526,-1.5309,-1.5344,-1.5384,-1.5423,-1.5445,-1.5479,-1.5513,-1.5564,-1.5597,-1.5661,-1.5712,-1.5763,-1.579,-1.58,-1.5802,-1.5812,-1.5809,-1.5798,-1.5806,-1.5727,-1.5801,-1.5801,-1.5801,-1.58,-1.58,-1.5242,-1.5275,-1.5319,-1.5367,-1.5399,-1.5435,-1.547,-1.5499,-1.5542,-1.5596,-1.5609,-1.5663,-1.5706,-1.5776,-1.5804,-1.5847,-1.5843,-1.5857,-1.5861,-1.5865,-1.5867,-1.5789,-1.5856,-1.5856,-1.5856,-1.5856,-1.5856,0,-1.5303,-1.5332,-1.5375,-1.543,-1.5467,-1.5471,-1.5515,-1.5547,-1.5594,-1.5633,-1.5674,-1.5733,-1.5782,-1.5819,-1.587,-1.5897,-1.5903,-1.5909,-1.5909,-1.5916,-1.5866,-1.5854,-1.5904,-1.5904,-1.5904,-1.5904,-1.5904,-1.5904,-1.5339,-1.5396,-1.5414,-1.5486,-1.5514,-1.5567,-1.5592,-1.5626,-1.5657,-1.5723,-1.5763,-1.5787,-1.5826,-1.5879,-1.5924,-1.5934,-1.5953,-1.596,-1.5971,-1.5924,-1.5919,-1.5914,-1.5903,-1.5963,-1.5963,-1.6017,-1.6018,-1.6018]}]]